CPA742F EDDP-EKCH

Flight info

Callsign CPA742F
Flight time 0h 49m
Altitude 32000
Route ODLUN Z207 MAG M736 SOGMA M748 ERNUD M726 ROSOK Q296 MONAK
Aircraft B742/H-SDFHIRWXY/L

Departure

Time 2026-05-06 15:20
Airport Leipzig/Halle Airport (EDDP)

Arrival

Time 2026-05-06 16:10
Airport Copenhagen Kastrup Airport (EKCH)
Time Latitude Longitude Altitude Speed Heading
2026-05-06 14:25 51.40892 12.24534 479 ft 0 kts 266°
2026-05-06 14:52 51.40893 12.24565 479 ft 2 kts 265°
2026-05-06 14:52 51.40894 12.24589 479 ft 2 kts 265°
2026-05-06 14:53 51.40895 12.24613 479 ft 2 kts 266°
2026-05-06 14:53 51.40896 12.24637 479 ft 2 kts 276°
2026-05-06 14:53 51.40892 12.24660 479 ft 2 kts 291°
2026-05-06 14:53 51.40886 12.24681 479 ft 2 kts 304°
2026-05-06 14:54 51.40877 12.24699 479 ft 2 kts 317°
2026-05-06 14:54 51.40865 12.24713 479 ft 2 kts 330°
2026-05-06 14:54 51.40852 12.24723 479 ft 2 kts 343°
2026-05-06 14:54 51.40839 12.24727 479 ft 0 kts 355°
2026-05-06 14:55 51.40835 12.24727 479 ft 0 kts 356°
2026-05-06 15:16 51.40843 12.24726 479 ft 3 kts 356°
2026-05-06 15:16 51.40896 12.24719 479 ft 11 kts 355°
2026-05-06 15:16 51.40998 12.24705 479 ft 13 kts 355°
2026-05-06 15:17 51.41053 12.24704 479 ft 3 kts
2026-05-06 15:17 51.41072 12.24710 479 ft 3 kts 21°
2026-05-06 15:17 51.41092 12.24737 479 ft 4 kts 55°
2026-05-06 15:17 51.41103 12.24806 479 ft 9 kts 84°
2026-05-06 15:18 51.41108 12.24935 479 ft 14 kts 87°
2026-05-06 15:18 51.41115 12.25122 479 ft 19 kts 85°
2026-05-06 15:18 51.41128 12.25346 479 ft 20 kts 84°
2026-05-06 15:18 51.41141 12.25560 479 ft 17 kts 70°
2026-05-06 15:19 51.41239 12.25624 479 ft 15 kts 356°
2026-05-06 15:19 51.41340 12.25606 479 ft 13 kts 345°
2026-05-06 15:19 51.41396 12.25515 479 ft 11 kts 275°
2026-05-06 15:19 51.41390 12.25371 479 ft 18 kts 265°
2026-05-06 15:20 51.41370 12.24847 479 ft 88 kts 265°
2026-05-06 15:20 51.41300 12.23463 481 ft 165 kts 265°
2026-05-06 15:20 51.41180 12.21385 850 ft 201 kts 266°
2026-05-06 15:20 51.41043 12.19146 1667 ft 214 kts 268°
2026-05-06 15:21 51.41003 12.16896 2836 ft 208 kts 272°
2026-05-06 15:21 51.41014 12.14426 3532 ft 234 kts 273°
2026-05-06 15:21 51.41158 12.11820 4422 ft 245 kts 284°
2026-05-06 15:21 51.42110 12.09735 5515 ft 249 kts 337°
2026-05-06 15:22 51.43911 12.09784 6082 ft 273 kts
2026-05-06 15:22 51.45750 12.09455 7273 ft 265 kts 339°
2026-05-06 15:22 51.47491 12.08700 8457 ft 264 kts 347°
2026-05-06 15:22 51.49251 12.08383 9365 ft 257 kts 353°
2026-05-06 15:23 51.51099 12.08256 9566 ft 277 kts 355°
2026-05-06 15:23 51.53077 12.08220 9883 ft 291 kts 357°
2026-05-06 15:23 51.55142 12.08266 10244 ft 303 kts 358°
2026-05-06 15:23 51.57282 12.08347 10613 ft 313 kts 358°
2026-05-06 15:24 51.59465 12.08431 10989 ft 309 kts 358°
2026-05-06 15:24 51.61553 12.08512 11347 ft 298 kts 358°
2026-05-06 15:24 51.63655 12.08585 11706 ft 304 kts 358°
2026-05-06 15:24 51.65813 12.08660 12074 ft 313 kts 358°
2026-05-06 15:25 51.68043 12.08721 12436 ft 329 kts 356°
2026-05-06 15:25 51.70312 12.08127 12803 ft 338 kts 338°
2026-05-06 15:25 51.72422 12.06422 13172 ft 347 kts 320°
2026-05-06 15:25 51.74199 12.03750 13541 ft 355 kts 308°
2026-05-06 15:26 51.75798 12.00670 13989 ft 361 kts 306°
2026-05-06 15:26 51.77445 11.97520 14477 ft 364 kts 307°
2026-05-06 15:26 51.79091 11.94488 14963 ft 368 kts 308°
2026-05-06 15:26 51.80813 11.91390 15485 ft 370 kts 308°
2026-05-06 15:27 51.82541 11.88312 15953 ft 373 kts 309°
2026-05-06 15:27 51.84417 11.85431 16461 ft 380 kts 320°
2026-05-06 15:27 51.86749 11.83353 16968 ft 390 kts 335°
2026-05-06 15:27 51.89378 11.82194 17463 ft 398 kts 346°
2026-05-06 15:28 51.92108 11.81441 17937 ft 402 kts 347°
2026-05-06 15:28 51.94898 11.80724 18420 ft 404 kts 347°
2026-05-06 15:28 51.97645 11.79972 18932 ft 407 kts 347°
2026-05-06 15:28 52.00468 11.79597 19447 ft 415 kts 358°
2026-05-06 15:29 52.03342 11.79915 19951 ft 420 kts
2026-05-06 15:29 52.06262 11.80456 20459 ft 424 kts
2026-05-06 15:29 52.09181 11.81027 20965 ft 426 kts
2026-05-06 15:29 52.12102 11.81576 21469 ft 429 kts
2026-05-06 15:30 52.14956 11.82090 21964 ft 432 kts
2026-05-06 15:30 52.18066 11.82634 22495 ft 435 kts
2026-05-06 15:30 52.20682 11.83086 22944 ft 438 kts
2026-05-06 15:30 52.24090 11.83674 23529 ft 441 kts
2026-05-06 15:31 52.27163 11.84205 24056 ft 443 kts
2026-05-06 15:31 52.30216 11.84735 24583 ft 441 kts
2026-05-06 15:31 52.33221 11.85258 25103 ft 439 kts
2026-05-06 15:32 52.39245 11.86305 26153 ft 437 kts
2026-05-06 15:32 52.42241 11.86826 26675 ft 437 kts
2026-05-06 15:32 52.45206 11.87341 27198 ft 437 kts
2026-05-06 15:32 52.48199 11.87862 27724 ft 436 kts
2026-05-06 15:33 52.51197 11.88385 28253 ft 435 kts
2026-05-06 15:33 52.54120 11.88897 28770 ft 434 kts
2026-05-06 15:33 52.57092 11.89418 29299 ft 434 kts
2026-05-06 15:33 52.59989 11.89800 29808 ft 431 kts 358°
2026-05-06 15:34 52.62868 11.89246 30330 ft 426 kts 343°
2026-05-06 15:34 52.65503 11.87668 30809 ft 423 kts 330°
2026-05-06 15:34 52.67936 11.85207 31175 ft 421 kts 322°
2026-05-06 15:34 52.70253 11.82339 31520 ft 420 kts 319°
2026-05-06 15:35 52.72520 11.79385 31725 ft 422 kts 319°
2026-05-06 15:35 52.74774 11.76444 31784 ft 423 kts 319°
2026-05-06 15:35 52.79347 11.70563 31832 ft 418 kts 320°
2026-05-06 15:36 52.83873 11.64793 31834 ft 417 kts 320°
2026-05-06 15:36 52.88406 11.59009 31832 ft 418 kts 320°
2026-05-06 15:37 52.93292 11.54217 31840 ft 423 kts 342°
2026-05-06 15:37 52.96180 11.53271 31885 ft 431 kts 356°
2026-05-06 15:37 52.99146 11.53398 32000 ft 437 kts
2026-05-06 15:38 53.05186 11.54808 32084 ft 453 kts
2026-05-06 15:38 53.10290 11.56020 32083 ft 465 kts
2026-05-06 15:39 53.17784 11.57643 32087 ft 464 kts
2026-05-06 15:39 53.24111 11.58973 32082 ft 462 kts
2026-05-06 15:40 53.30349 11.61534 32089 ft 464 kts 17°
2026-05-06 15:40 53.36443 11.64672 32094 ft 463 kts 17°
2026-05-06 15:41 53.42561 11.67791 32052 ft 464 kts 17°
2026-05-06 15:41 53.45600 11.69321 31949 ft 465 kts 17°
2026-05-06 15:41 53.48665 11.70859 31873 ft 464 kts 17°
2026-05-06 15:42 53.54733 11.73899 31847 ft 464 kts 17°
2026-05-06 15:42 53.60879 11.76983 31861 ft 466 kts 17°
2026-05-06 15:43 53.67004 11.80065 31855 ft 465 kts 17°
2026-05-06 15:43 53.73130 11.83158 31854 ft 464 kts 17°
2026-05-06 15:44 53.79189 11.86225 31861 ft 464 kts 17°
2026-05-06 15:44 53.85298 11.89328 31864 ft 465 kts 17°
2026-05-06 15:45 53.91240 11.92354 31871 ft 464 kts 17°
2026-05-06 15:45 53.97345 11.95473 31871 ft 464 kts 17°
2026-05-06 15:46 54.03436 11.98595 31871 ft 465 kts 17°
2026-05-06 15:46 54.09552 12.01738 31868 ft 464 kts 17°
2026-05-06 15:47 54.15734 12.04927 31875 ft 465 kts 17°
2026-05-06 15:47 54.21835 12.08084 31879 ft 466 kts 17°
2026-05-06 15:48 54.27959 12.11261 31714 ft 467 kts 17°
2026-05-06 15:48 54.31081 12.12884 31610 ft 467 kts 17°
2026-05-06 15:48 54.34134 12.14474 31551 ft 466 kts 17°
2026-05-06 15:49 54.37256 12.15811 31443 ft 466 kts
2026-05-06 15:49 54.40486 12.16328 31305 ft 469 kts
2026-05-06 15:49 54.43689 12.16626 31041 ft 472 kts
2026-05-06 15:49 54.46957 12.16975 30755 ft 471 kts
2026-05-06 15:50 54.50224 12.17426 30459 ft 469 kts
2026-05-06 15:50 54.53441 12.17957 30166 ft 468 kts
2026-05-06 15:50 54.56657 12.18543 29878 ft 469 kts
2026-05-06 15:50 54.59888 12.19163 29585 ft 470 kts
2026-05-06 15:51 54.63150 12.19805 29296 ft 470 kts
2026-05-06 15:51 54.66375 12.20448 28898 ft 472 kts
2026-05-06 15:51 54.69638 12.21101 28466 ft 473 kts
2026-05-06 15:51 54.72833 12.21743 28044 ft 472 kts
2026-05-06 15:52 54.76010 12.22381 27632 ft 471 kts
2026-05-06 15:52 54.79272 12.23038 27170 ft 471 kts
2026-05-06 15:52 54.82512 12.23690 26611 ft 473 kts
2026-05-06 15:52 54.85688 12.24331 26065 ft 474 kts
2026-05-06 15:53 54.88927 12.24985 25512 ft 473 kts
2026-05-06 15:53 54.92178 12.25643 24959 ft 473 kts
2026-05-06 15:53 54.95408 12.26299 24418 ft 473 kts
2026-05-06 15:53 54.98672 12.26961 23878 ft 473 kts
2026-05-06 15:54 55.01891 12.27614 23367 ft 473 kts
2026-05-06 15:54 55.05171 12.28282 22854 ft 474 kts
2026-05-06 15:54 55.08458 12.28951 22343 ft 476 kts
2026-05-06 15:54 55.11728 12.29617 21835 ft 476 kts
2026-05-06 15:55 55.14999 12.30286 21325 ft 476 kts
2026-05-06 15:55 55.18288 12.31007 20813 ft 477 kts
2026-05-06 15:55 55.21500 12.32604 20295 ft 482 kts 20°
2026-05-06 15:55 55.24469 12.35391 19775 ft 486 kts 32°
2026-05-06 15:56 55.27001 12.39150 19262 ft 483 kts 45°
2026-05-06 15:56 55.29043 12.43812 18731 ft 476 kts 57°
2026-05-06 15:56 55.30415 12.48944 18218 ft 469 kts 70°
2026-05-06 15:56 55.31121 12.54486 17688 ft 461 kts 83°
2026-05-06 15:57 55.31598 12.59942 17181 ft 452 kts 77°
2026-05-06 15:57 55.32309 12.65317 16665 ft 445 kts 76°
2026-05-06 15:57 55.33054 12.70527 16162 ft 439 kts 76°
2026-05-06 15:57 55.33796 12.75648 15656 ft 433 kts 75°
2026-05-06 15:58 55.34533 12.80734 15138 ft 427 kts 75°
2026-05-06 15:58 55.35263 12.85788 14630 ft 421 kts 75°
2026-05-06 15:58 55.36077 12.90683 14095 ft 413 kts 67°
2026-05-06 15:58 55.37425 12.94981 13575 ft 393 kts 52°
2026-05-06 15:59 55.39226 12.98308 13075 ft 372 kts 37°
2026-05-06 15:59 55.41391 13.00580 12552 ft 354 kts 20°
2026-05-06 15:59 55.43686 13.01612 12035 ft 337 kts
2026-05-06 15:59 55.45968 13.01403 11538 ft 322 kts 346°
2026-05-06 16:00 55.47989 13.00030 11012 ft 310 kts 328°
2026-05-06 16:00 55.49604 12.97642 10485 ft 300 kts 309°
2026-05-06 16:00 55.50628 12.94575 9961 ft 292 kts 290°
2026-05-06 16:00 55.50887 12.91140 9457 ft 286 kts 262°
2026-05-06 16:01 55.50185 12.87977 8981 ft 283 kts 232°
2026-05-06 16:01 55.48768 12.85647 8445 ft 278 kts 217°
2026-05-06 16:01 55.47160 12.83603 7930 ft 299 kts 216°
2026-05-06 16:01 55.45449 12.81489 7413 ft 297 kts 215°
2026-05-06 16:02 55.43776 12.79425 6884 ft 290 kts 215°
2026-05-06 16:02 55.42144 12.77405 6401 ft 287 kts 215°
2026-05-06 16:02 55.40693 12.74982 5873 ft 289 kts 239°
2026-05-06 16:02 55.39929 12.71762 5435 ft 287 kts 254°
2026-05-06 16:03 55.39374 12.68427 5168 ft 281 kts 255°
2026-05-06 16:03 55.38849 12.65114 4900 ft 276 kts 255°
2026-05-06 16:03 55.38351 12.61914 4636 ft 271 kts 255°
2026-05-06 16:03 55.37971 12.58745 4356 ft 264 kts 272°
2026-05-06 16:04 55.38419 12.55709 4097 ft 254 kts 301°
2026-05-06 16:04 55.39323 12.53084 3836 ft 249 kts 305°
2026-05-06 16:04 55.40259 12.50552 3575 ft 244 kts 306°
2026-05-06 16:04 55.41170 12.48086 3308 ft 240 kts 305°
2026-05-06 16:05 55.42076 12.45652 3066 ft 237 kts 306°
2026-05-06 16:05 55.43120 12.43636 2976 ft 219 kts 336°
2026-05-06 16:05 55.44579 12.43060 2632 ft 215 kts 11°
2026-05-06 16:05 55.46045 12.43478 2255 ft 210 kts 15°
2026-05-06 16:06 55.47431 12.43971 2038 ft 204 kts 16°
2026-05-06 16:06 55.48581 12.44486 1966 ft 194 kts 30°
2026-05-06 16:06 55.49752 12.46040 1983 ft 182 kts 41°
2026-05-06 16:06 55.50739 12.47408 1967 ft 181 kts 43°
2026-05-06 16:07 55.51698 12.48815 1956 ft 181 kts 44°
2026-05-06 16:07 55.52673 12.50289 1756 ft 184 kts 45°
2026-05-06 16:07 55.53616 12.51728 1507 ft 181 kts 45°
2026-05-06 16:07 55.54475 12.53046 1311 ft 172 kts 45°
2026-05-06 16:08 55.55366 12.54413 1047 ft 161 kts 45°
2026-05-06 16:08 55.56183 12.55673 860 ft 155 kts 46°
2026-05-06 16:08 55.56977 12.56899 650 ft 155 kts 45°
2026-05-06 16:08 55.57786 12.58148 440 ft 154 kts 45°
2026-05-06 16:09 55.58578 12.59369 219 ft 150 kts 45°
2026-05-06 16:09 55.59370 12.60584 48 ft 152 kts 45°
2026-05-06 16:09 55.60095 12.61718 26 ft 139 kts 41°
2026-05-06 16:09 55.60709 12.62658 23 ft 92 kts 42°
2026-05-06 16:10 55.61069 12.63219 20 ft 50 kts 42°
2026-05-06 16:10 55.61210 12.63434 21 ft 0 kts 43°
2026-05-06 16:10 55.61248 12.63492 21 ft 19 kts 41°
2026-05-06 16:10 55.61407 12.63702 24 ft 29 kts
2026-05-06 16:11 55.61597 12.63675 25 ft 23 kts
2026-05-06 16:11 55.61722 12.63846 25 ft 23 kts 42°
2026-05-06 16:11 55.61848 12.64021 26 ft 22 kts 35°
2026-05-06 16:11 55.61979 12.64160 27 ft 22 kts 26°
2026-05-06 16:12 55.62114 12.64275 27 ft 22 kts 26°
2026-05-06 16:12 55.62211 12.64358 27 ft 8 kts 39°
2026-05-06 16:12 55.62210 12.64458 27 ft 9 kts 118°
2026-05-06 16:12 55.62181 12.64555 27 ft 8 kts 122°
2026-05-06 16:13 55.62150 12.64638 27 ft 9 kts 125°
2026-05-06 16:13 55.62112 12.64738 28 ft 13 kts 123°
2026-05-06 16:13 55.62048 12.64909 27 ft 19 kts 125°
2026-05-06 16:13 55.61958 12.65140 27 ft 25 kts 125°
2026-05-06 16:14 55.61870 12.65406 27 ft 24 kts 122°
2026-05-06 16:14 55.61779 12.65649 27 ft 23 kts 124°
2026-05-06 16:14 55.61697 12.65870 28 ft 21 kts 122°
2026-05-06 16:14 55.61621 12.66075 28 ft 19 kts 124°
2026-05-06 16:15 55.61548 12.66270 28 ft 20 kts 124°
2026-05-06 16:15 55.61464 12.66493 27 ft 23 kts 123°
2026-05-06 16:15 55.61371 12.66746 25 ft 26 kts 123°
2026-05-06 16:15 55.61286 12.66998 23 ft 16 kts 97°
2026-05-06 16:16 55.61352 12.67108 24 ft 12 kts 16°
2026-05-06 16:16 55.61435 12.67115 27 ft 12 kts 349°
2026-05-06 16:16 55.61539 12.67079 27 ft 17 kts 349°
2026-05-06 16:16 55.61632 12.67047 28 ft 8 kts 349°
2026-05-06 16:17 55.61688 12.67028 28 ft 7 kts 349°
2026-05-06 16:17 55.61736 12.67012 28 ft 6 kts 351°
2026-05-06 16:17 55.61769 12.67014 28 ft 4 kts 37°
2026-05-06 16:17 55.61784 12.67052 28 ft 3 kts 70°
2026-05-06 16:18 55.61792 12.67096 27 ft 4 kts 76°
2026-05-06 16:18 55.61797 12.67146 27 ft 3 kts 79°
2026-05-06 16:18 55.61798 12.67150 28 ft 0 kts 79°